Weather in Altdorf

Switzerland     46°52′57″N   8°38′26″E
temp.,
°C
wind,
m/s
gust,
m/s
humid.,
%
clouds,
%
prec.,
mm/h
press.,
hPa
HPBL,
m
10 may, mon
mon1023:00+5sse779542 0.0 1013119
02:00+5sse679595 0.0 1013129
05:00+5sse7889100 0.0 1011149
08:00+7sse678823 0.0 1011191
11:00+12sse5670100 0.0 1010557
14:00+13sse4568100 0.1 1010788
17:00+12se4565100 0.1 1010812
20:00+9sse3382100 0.2 100881
11 may, tue
tue1123:00+7sse338628 0.1 100958
02:00+5s33896 0.8 101059
05:00+4ssw1193100 0.5 101021
08:00+6e0195100 1.7 1009214
11:00+7w2297100 1.1 1008345
14:00+5nw2299100 5.2 1010249
17:00+4nw2299100 2.8 1011281
20:00+4se1197100 7.2 101195
12 may, wed
wed1223:00+3w12100100 4.6 1013223
02:00+3w1299100 8.3 1013319
05:00+2w12100100 5.4 1014311
08:00+1wnw12100100 9.8 1014224
11:00+1wsw12100100 6.1 1014141
14:00+2wnw12100100 9.6 1013244
17:00+1wnw12100100 3.3 1013186
20:000wsw12100100 7.4 101473
13 may, thu
thu1323:000sw12100100 4.5 1014120
02:000sw11100100 8.9 1013150
05:00+1wsw11100100 4.1 1012172
08:00+1wsw12100100 8.1 1011176
11:00+1wsw11100100 3.9 1012240
14:00+2sw11100100 6.6 1011221
17:00+2ssw12100100 0.8 1011186
20:00+2sse12100100 0.8 101162
14 may, fri
fri1423:00+1sse329397 0.1 101228
02:00−1sse329162 0.1 101326
05:00+1sse2292100 0.0 101123
08:00+3sse119777 0.0 101139
11:00+6ene019282 0.1 1010504
14:00+7wnw0090100 0.6 1009496
17:00+5s2298100 1.3 1011156
20:00+4sse2399100 1.4 101157